| time (UTC) | temp F | wind direction | speed knots | gust knots | rain 1hr in | rain 24hr in | rain mn in | humidity % | barometer mb |
| 20260506203831 | 54 | 169 | 3.5 | 11.3 | 0.27 | 0.07 | 0.07 | 73 | 1008.5 |
| 20260506202855 | 54 | 222 | 3.5 | 13.0 | 0.00 | 0.01 | 0.00 | 72 | 1008.5 |
| 20260506201903 | 54 | 219 | 4.3 | 13.0 | 0.00 | 0.00 | 0.00 | 72 | 1008.3 |
| 20260506195709 | 54 | 201 | 4.3 | 11.3 | 0.00 | 0.02 | 0.00 | 72 | 1008.2 |
| 20260506194657 | 54 | 180 | 4.3 | 11.3 | 0.00 | 0.03 | 0.00 | 71 | 1008.2 |
| 20260506193652 | 54 | 177 | 3.5 | 11.3 | 0.00 | 0.03 | 0.00 | 71 | 1008.1 |
| 20260506192630 | 55 | 173 | 3.5 | 11.3 | 0.00 | 0.06 | 0.00 | 71 | 1007.9 |
| 20260506191558 | 55 | 196 | 3.5 | 10.4 | 0.00 | 0.14 | 0.00 | 70 | 1008.0 |
| 20260506190602 | 55 | 198 | 3.5 | 7.8 | 0.00 | 0.20 | 0.00 | 70 | 1007.9 |
| 20260506185611 | 56 | 179 | 2.6 | 7.8 | 0.00 | 0.25 | 0.00 | 69 | 1007.7 |
| 20260506183448 | 56 | 173 | 3.5 | 13.0 | 0.00 | 0.25 | 0.00 | 69 | 1007.4 |
| 20260506182434 | 57 | 205 | 3.5 | 13.0 | 0.00 | 0.25 | 0.00 | 69 | 1007.3 |
| 20260506181455 | 57 | 181 | 3.5 | 8.7 | 0.00 | 0.25 | 0.00 | 69 | 1007.3 |
| 20260506180514 | 57 | 170 | 3.5 | 9.6 | 0.00 | 0.25 | 0.00 | 68 | 1007.3 |
| 20260506175528 | 57 | 214 | 3.5 | 9.6 | 0.00 | 0.25 | 0.00 | 68 | 1007.1 |
| 20260506173441 | 58 | 166 | 3.5 | 12.2 | 0.00 | 0.25 | 0.00 | 67 | 1006.8 |
| 20260506171341 | 58 | 173 | 5.2 | 11.3 | 0.00 | 0.26 | 0.00 | 67 | 1006.6 |
| 20260506170323 | 58 | 189 | 4.3 | 10.4 | 0.00 | 0.26 | 0.00 | 66 | 1006.5 |
| 20260506165252 | 59 | 221 | 3.5 | 8.7 | 0.00 | 0.26 | 0.00 | 65 | 1006.5 |
| 20260506163143 | 60 | 164 | 3.5 | 9.6 | 0.00 | 0.26 | 0.00 | 63 | 1006.5 |
| 20260506161041 | 61 | 190 | 3.5 | 12.2 | 0.00 | 0.26 | 0.00 | 59 | 1006.4 |
| 20260506160011 | 62 | 165 | 2.6 | 7.8 | 0.00 | 0.26 | 0.00 | 57 | 1006.4 |
| 20260506153939 | 64 | 130 | 0.9 | 4.3 | 0.00 | 0.26 | 0.00 | 51 | 1006.2 |
| 20260506152913 | 64 | 155 | 0.9 | 3.5 | 0.00 | 0.26 | 0.00 | 50 | 1006.2 |
| 20260506151925 | 65 | 173 | 0.9 | 6.1 | 0.00 | 0.26 | 0.00 | 50 | 1006.1 |
| 20260506150933 | 65 | 171 | 1.7 | 5.2 | 0.00 | 0.26 | 0.00 | 49 | 1006.2 |
| 20260506144748 | 65 | 207 | 0.9 | 4.3 | 0.00 | 0.26 | 0.00 | 49 | 1006.1 |
| 20260506143751 | 65 | 209 | 0.0 | 0.0 | 0.00 | 0.26 | 0.00 | 50 | 1006.0 |
| 20260506142805 | 65 | 271 | 0.9 | 5.2 | 0.00 | 0.26 | 0.00 | 49 | 1005.9 |
| 20260506141829 | 64 | 266 | 0.9 | 6.1 | 0.00 | 0.26 | 0.00 | 50 | 1005.9 |
| 20260506140825 | 64 | 286 | 0.9 | 6.1 | 0.00 | 0.26 | 0.00 | 49 | 1005.9 |
| 20260506135759 | 64 | 234 | 0.9 | 4.3 | 0.00 | 0.27 | 0.00 | 49 | 1005.9 |
| 20260506133650 | 65 | 284 | 1.7 | 10.4 | 0.00 | 0.28 | 0.00 | 50 | 1006.1 |
| 20260506132650 | 66 | 270 | 2.6 | 10.4 | 0.00 | 0.29 | 0.00 | 50 | 1006.1 |
| 20260506130449 | 66 | 238 | 2.6 | 9.6 | 0.00 | 0.29 | 0.00 | 50 | 1006.0 |
| 20260506125442 | 65 | 257 | 0.9 | 6.1 | 0.00 | 0.29 | 0.00 | 51 | 1006.0 |
| 20260506124442 | 66 | 271 | 2.6 | 7.0 | 0.00 | 0.29 | 0.00 | 51 | 1006.0 |
| 20260506123440 | 66 | 277 | 0.9 | 9.6 | 0.00 | 0.29 | 0.00 | 49 | 1005.9 |
| 20260506121255 | 68 | 262 | 2.6 | 11.3 | 0.00 | 0.29 | 0.00 | 49 | 1005.9 |
| 20260506120232 | 67 | 251 | 0.9 | 9.6 | 0.00 | 0.29 | 0.00 | 49 | 1005.9 |
| 20260506115247 | 67 | 209 | 1.7 | 9.6 | 0.00 | 0.29 | 0.00 | 49 | 1006.0 |
| 20260506114232 | 66 | 268 | 2.6 | 7.0 | 0.00 | 0.29 | 0.00 | 50 | 1006.0 |
| 20260506113214 | 66 | 250 | 2.6 | 0.0 | 0.00 | 0.29 | 0.00 | 50 | 1006.1 |
| 20260506112217 | 65 | 259 | 1.7 | 6.1 | 0.00 | 0.29 | 0.00 | 52 | 1006.2 |
| 20260506111223 | 64 | 182 | 1.7 | 0.0 | 0.00 | 0.29 | 0.00 | 54 | 1006.4 |
| 20260506110239 | 65 | 267 | 2.6 | 7.8 | 0.00 | 0.29 | 0.00 | 52 | 1006.5 |
| 20260506105251 | 65 | 273 | 0.9 | 8.7 | 0.00 | 0.29 | 0.00 | 52 | 1006.5 |
| 20260506104220 | 64 | 262 | 2.6 | 8.7 | 0.00 | 0.29 | 0.00 | 54 | 1006.6 |
| 20260506103234 | 64 | 291 | 0.9 | 7.8 | 0.00 | 0.29 | 0.00 | 54 | 1006.6 |
| 20260506102254 | 63 | 286 | 2.6 | 8.7 | 0.00 | 0.29 | 0.00 | 54 | 1006.6 |
| 20260506101226 | 63 | 257 | 2.6 | 8.7 | 0.00 | 0.29 | 0.00 | 54 | 1006.6 |
| 20260506093954 | 62 | 265 | 2.6 | 7.8 | 0.00 | 0.29 | 0.00 | 58 | 1006.8 |
| 20260506093012 | 62 | 287 | 1.7 | 9.6 | 0.00 | 0.29 | 0.00 | 58 | 1006.7 |
| 20260506085735 | 63 | 213 | 2.6 | 9.6 | 0.00 | 0.29 | 0.00 | 59 | 1006.7 |
| 20260506084702 | 61 | 206 | 3.5 | 9.6 | 0.00 | 0.29 | 0.00 | 60 | 1006.6 |
| 20260506083644 | 61 | 242 | 2.6 | 7.0 | 0.00 | 0.29 | 0.00 | 62 | 1006.4 |
| 20260506081527 | 60 | 310 | 3.5 | 7.0 | 0.00 | 0.29 | 0.00 | 64 | 1006.2 |
| 20260506080539 | 60 | 280 | 3.5 | 7.0 | 0.00 | 0.29 | 0.00 | 66 | 1006.2 |
| 20260506072336 | 58 | 221 | 1.7 | 5.2 | 0.00 | 0.29 | 0.00 | 84 | 1006.4 |
| 20260506070301 | 56 | 217 | 0.9 | 3.5 | 0.00 | 0.29 | 0.00 | 84 | 1006.3 |
| 20260506062100 | 55 | 223 | 0.0 | 0.0 | 0.00 | 0.29 | 0.00 | 85 | 1006.2 |
| 20260506061045 | 55 | 183 | 0.0 | 0.0 | 0.00 | 0.29 | 0.00 | 85 | 1006.2 |
| 20260506051143 | 52 | 184 | 0.0 | 0.0 | 0.00 | 0.29 | 0.00 | 83 | 1006.3 |
| 20260506050124 | 52 | 184 | 0.0 | 0.0 | 0.00 | 0.29 | 0.00 | 83 | 1006.3 |
| 20260506045123 | 52 | 184 | 0.0 | 0.0 | 0.00 | 0.29 | 0.00 | 82 | 1006.2 |
| 20260506044146 | 52 | 184 | 0.0 | 0.0 | 0.00 | 0.29 | 0.00 | 82 | 1006.2 |
| 20260506042035 | 52 | 184 | 1.7 | 4.3 | 0.00 | 0.29 | 0.00 | 82 | 1006.2 |
| 20260506041008 | 52 | 200 | 0.9 | 4.3 | 0.00 | 0.29 | 0.00 | 82 | 1006.2 |
| 20260506035937 | 52 | 217 | 0.0 | 1.7 | 0.00 | 0.29 | 0.00 | 82 | 1006.1 |
| 20260506034934 | 52 | 217 | 0.9 | 4.3 | 0.00 | 0.29 | 0.00 | 82 | 1006.2 |
| 20260506032850 | 53 | 173 | 0.0 | 0.0 | 0.00 | 0.29 | 0.00 | 82 | 1006.4 |
| 20260506031816 | 53 | 173 | 0.0 | 0.0 | 0.00 | 0.29 | 0.00 | 82 | 1006.5 |
| 20260506030837 | 53 | 173 | 0.0 | 0.0 | 0.00 | 0.29 | 0.00 | 82 | 1006.5 |
| 20260506024638 | 53 | 167 | 1.7 | 7.0 | 0.00 | 0.29 | 0.00 | 82 | 1006.7 |
| 20260506023621 | 54 | 179 | 3.5 | 7.8 | 0.00 | 0.29 | 0.00 | 82 | 1006.7 |
| 20260506022622 | 54 | 175 | 3.5 | 7.8 | 0.00 | 0.29 | 0.00 | 81 | 1006.7 |
| 20260506021601 | 54 | 180 | 1.7 | 7.0 | 0.00 | 0.29 | 0.00 | 81 | 1006.7 |
| 20260506015445 | 54 | 172 | 0.9 | 4.3 | 0.00 | 0.29 | 0.00 | 81 | 1006.7 |
| 20260506013336 | 55 | 180 | 2.6 | 7.8 | 0.00 | 0.29 | 0.00 | 81 | 1006.8 |
| 20260506012315 | 54 | 200 | 2.6 | 5.2 | 0.00 | 0.29 | 0.00 | 81 | 1006.8 |
| 20260506011247 | 54 | 187 | 0.0 | 4.3 | 0.00 | 0.29 | 0.00 | 80 | 1006.9 |
| 20260506010308 | 55 | 166 | 0.0 | 0.0 | 0.00 | 0.29 | 0.00 | 80 | 1007.0 |
| 20260506005250 | 55 | 166 | 0.0 | 0.0 | 0.00 | 0.29 | 0.00 | 80 | 1007.0 |
| 20260506003131 | 55 | 166 | 0.9 | 3.5 | 0.00 | 0.29 | 0.00 | 80 | 1007.2 |
| 20260506002120 | 55 | 165 | 0.0 | 2.6 | 0.00 | 0.29 | 0.00 | 79 | 1007.4 |
| 20260506001127 | 55 | 179 | 0.0 | 0.0 | 0.00 | 0.29 | 0.00 | 79 | 1007.3 |
| 20260506000147 | 55 | 179 | 0.9 | 3.5 | 0.00 | 0.29 | 0.00 | 79 | 1007.4 |
| 20260505235206 | 55 | 180 | 1.7 | 5.2 | 0.00 | 0.29 | 0.00 | 79 | 1007.4 |
| 20260505233125 | 55 | 174 | 0.9 | 3.5 | 0.00 | 0.29 | 0.00 | 78 | 1007.5 |
| 20260505232130 | 55 | 188 | 0.9 | 2.6 | 0.00 | 0.29 | 0.00 | 78 | 1007.5 |
| 20260505231118 | 56 | 188 | 0.9 | 3.5 | 0.00 | 0.29 | 0.00 | 78 | 1007.7 |
| 20260505222801 | 56 | 202 | 2.6 | 5.2 | 0.00 | 0.29 | 0.00 | 77 | 1007.6 |
| 20260505220602 | 57 | 164 | 2.6 | 5.2 | 0.00 | 0.29 | 0.00 | 76 | 1007.5 |
| 20260505215620 | 57 | 167 | 2.6 | 4.3 | 0.00 | 0.29 | 0.29 | 76 | 1007.5 |
| 20260505214555 | 57 | 161 | 2.6 | 4.3 | 0.00 | 0.29 | 0.29 | 76 | 1007.6 |
| 20260505213611 | 57 | 184 | 1.7 | 4.3 | 0.00 | 0.29 | 0.29 | 75 | 1007.5 |
| 20260505212545 | 57 | 176 | 0.9 | 4.3 | 0.00 | 0.29 | 0.29 | 75 | 1007.4 |
| 20260505211512 | 58 | 175 | 0.0 | 2.6 | 0.00 | 0.29 | 0.29 | 75 | 1007.6 |